Location: Centerville
(32.8776°N, 96.6203°W)
Time: 00:32:48
(UTC+00:00)

ASTRO E2 - Pass Details

Date: 17 June 2021
Orbit: 507 x 513 km, 31.4° (Epoch: 27 July)

Event Time Altitude Azimuth Distance (km) Brightness Sun altitude
Rises 02:42:26 0° 227° (SW) 2,598 6.4 -12.3°
Reaches altitude 10° 02:44:56 10° 213° (SSW) 1,716 5.3 -12.7°
Maximum altitude 02:48:11 24° 158° (SSE) 1,070 3.8 -13.2°
Enters shadow 02:49:03 22° 136° (SE) 1,131 3.8 -13.4°
